Business Liquidation-NY #19973

1997 Chevy 3500 HD Dump Truck

Bidding is closed.
High Bid:$4,100.00
NA
Bidding Ended: Mon, Dec 16  6:37:12 pm ET
High Bidder: ehrmsaf
Bid Increment: $50.00
Starting Bid: $25.00
Item Location: 11167 Big Tree Rd, East Aurora, Erie, NY 14052
Item has been viewed 3,476 times.
Twitter Google Email Pinterest Facebook

***Please review all Auction terms at left side of auction before bidding***

Terms of Sale:
All sales are final. No refunds will be issued. This item is being sold as is, where is, with no warranty, expressed written or implied. The seller shall not be responsible for the correct description, authenticity, genuineness, or defects herein, and makes no warranty in connection therewith. No allowance or set aside will be made on account of any incorrectness, imperfection, defect or damage. Any descriptions or representations are for identification purposes only and are not to be construed as a warranty of any type. It is the responsibility of the buyer to have thoroughly inspected this item and to have satisfied himself or herself as to the condition and value and to bid based upon that judgment solely. The seller shall and will make every reasonable effort to disclose any known defects associated with this item at the buyer request prior to the close of sale. Seller assumes no responsibility for any repairs regardless of any oral statements about the item. Seller is NOT responsible for providing tools or heavy equipment to aid in removal. Items left on seller premises after this removal deadline will revert back to possession of the seller, with no refund.

  • Year: 1997
  • Make: Chevy
  • Model: 3500 HD
  • Body Style: Dump Truck
  • VIN/SN: 1GBKC34F9VJ102953
  • Odometer Numbers: 74092
  • Engine Make/Model: 6.5L Turbo Diesel
  • Cyl: 8
  • Fuel Type: Diesel
  • Transmission Type: Manual
  • Single Axle/Dual Axle: Single Axle
  • Tire Size/Type: 225/70R19.5
  • Tire Condition: Fair
  • Drivetrain: 2WD
  • Does the unit operate?: Yes
  • Does the vehicle start?: Yes
  • Are keys available?: Yes
  • Ownership Documents: Clear Title
  • Mechanical Condition: Fair
  • Mechanical Notes: Speedometer & RPM gauges don't appear to be working. Dump box works. ABS and brake light on. Vehicle ran and drove in the parking lot.
  • Body Condition: Fair
  • Body Notes: Exterior tool box rusting. Small dings and dents. Some surface rust throughout the vehicle.
  • Interior Condition: Fair
  • Misc Info: Ripped seats, missing dash and door pieces very dirty.
  • GVWR: 14,001 - 16,000 lb (6,350 - 7,258 kg)
  • Titled: Yes

Click on any picture to see a larger image.
Bid Date Bid Amount Bidder
Dec 16, 2019 - 6:36:12 PM $4,100.00 iehrmsaf
Dec 16, 2019 - 6:36:12 PM $4,050.00 iJ@$e
Dec 16, 2019 - 6:35:24 PM $4,000.00 iJ@$e
Dec 16, 2019 - 6:35:10 PM $3,950.00 iehrmsaf
Dec 16, 2019 - 6:35:10 PM $3,900.00 iJ@$e
Dec 16, 2019 - 6:34:54 PM $3,850.00 iehrmsaf
Dec 16, 2019 - 6:34:54 PM $3,800.00 iJ@$e
Dec 16, 2019 - 6:34:37 PM $3,650.00 iJ@$e
Dec 16, 2019 - 6:34:13 PM $3,600.00 iehrmsaf
Dec 16, 2019 - 6:34:14 PM $3,600.00 iJ@$e
Dec 16, 2019 - 6:33:55 PM $3,550.00 iehrmsaf
Dec 16, 2019 - 6:33:55 PM $3,500.00 iJ@$e
Dec 16, 2019 - 5:24:05 PM $3,150.00 iJ@$e
Dec 16, 2019 - 5:24:05 PM $3,100.00 iaerosnow1
Dec 16, 2019 - 5:07:48 PM $3,050.00 iaerosnow1
Dec 16, 2019 - 5:07:48 PM $3,000.00 iJ@$e
Dec 16, 2019 - 5:07:31 PM $2,900.00 iaerosnow1
Dec 16, 2019 - 5:07:31 PM $2,850.00 iJ@$e
Dec 16, 2019 - 5:07:10 PM $2,800.00 iaerosnow1
Dec 16, 2019 - 5:07:10 PM $2,750.00 iJ@$e
Dec 16, 2019 - 4:18:43 PM $2,700.00 iaerosnow1
Dec 13, 2019 - 6:42:13 PM $2,650.00 iPOPS-TFKC
Dec 13, 2019 - 1:56:02 PM $2,600.00 iBE77
Dec 13, 2019 - 1:56:02 PM $2,550.00 iPOPS-TFKC
Dec 8, 2019 - 6:19:53 PM $2,475.00 iPOPS-TFKC
Dec 6, 2019 - 10:51:36 PM $2,450.00 i3351hath
Dec 6, 2019 - 5:47:26 PM $2,425.00 iPOPS-TFKC
Dec 6, 2019 - 5:47:15 PM $2,400.00 i3351hath
Dec 6, 2019 - 5:47:16 PM $2,400.00 iPOPS-TFKC
Dec 6, 2019 - 5:47:02 PM $2,275.00 i3351hath
Dec 6, 2019 - 5:47:02 PM $2,250.00 iPOPS-TFKC
Dec 5, 2019 - 8:13:10 PM $2,050.00 i3351hath
Dec 5, 2019 - 5:04:42 PM $2,025.00 iPOPS-TFKC
Dec 5, 2019 - 5:04:42 PM $2,000.00 iGrandma cash
Dec 5, 2019 - 5:04:25 PM $1,825.00 iGrandma cash
Dec 5, 2019 - 5:04:25 PM $1,800.00 iPOPS-TFKC
Dec 5, 2019 - 11:33:39 AM $1,575.00 iGrandma cash
Dec 5, 2019 - 8:54:42 AM $1,550.00 imes-55
Dec 5, 2019 - 8:54:42 AM $1,525.00 iPOPS-TFKC
Dec 4, 2019 - 11:22:51 AM $1,325.00 iPOPS-TFKC
Dec 4, 2019 - 11:22:51 AM $1,300.00 imrlikk
Dec 4, 2019 - 9:36:46 AM $1,275.00 iPOPS-TFKC
Dec 4, 2019 - 9:36:46 AM $1,250.00 idave01075
Dec 4, 2019 - 4:53:43 AM $1,050.00 idave01075
Dec 4, 2019 - 4:53:43 AM $1,025.00 iPOPS-TFKC
Dec 3, 2019 - 11:21:32 PM $780.00 iPOPS-TFKC
Dec 3, 2019 - 11:21:32 PM $770.00 ijmkaleh
Dec 3, 2019 - 8:49:12 PM $760.00 iPOPS-TFKC
Dec 3, 2019 - 8:49:12 PM $750.00 idave01075
Dec 3, 2019 - 7:20:59 PM $210.00 idave01075
Dec 3, 2019 - 7:20:59 PM $200.00 ievauto
Dec 3, 2019 - 4:02:03 PM $105.00 idave01075
Dec 3, 2019 - 4:02:03 PM $100.00 ichazbay1
Dec 3, 2019 - 1:04:52 PM $25.00 ichazbay1